DateTime,Index
2004082500,0.0
2004082506,0.0
2004082512,0.0
2004082518,1225.0
2004082600,1600.0
2004082606,2025.0
2004082612,3025.0
2004082618,4225.0
2004082700,4900.0
2004082706,5625.0
2004082712,8100.0
2004082718,10000.0
2004082800,10000.0
2004082806,10000.0
2004082812,11025.0
2004082818,13225.0
2004082900,13225.0
2004082906,13225.0
2004082912,13225.0
2004082918,12100.0
2004083000,11025.0
2004083006,10000.0
2004083012,10000.0
2004083018,12100.0
2004083100,12100.0
2004083106,13225.0
2004083112,14400.0
2004083118,15625.0
2004090100,14400.0
2004090106,14400.0
2004090112,14400.0
2004090118,14400.0
2004090200,14400.0
2004090206,15625.0
2004090212,14400.0
2004090218,13225.0
2004090300,11025.0
2004090306,10000.0
2004090312,9025.0
2004090318,8100.0
2004090400,7225.0
2004090406,7225.0
2004090412,8100.0
2004090418,8100.0
2004090500,9025.0
2004090506,8100.0
2004090512,6400.0
2004090518,3600.0
2004090600,3025.0
2004090606,3025.0
2004090612,3025.0
2004090618,2500.0
2004090700,1225.0
2004090706,0.0
2004090712,0.0
2004090718,0.0
2004090800,0.0
2004090806,0.0
2004090812,0.0
2004090818,0.0
2004090900,0.0
2004090906,0.0
2004090912,1225.0
2004090918,0.0
2004091000,0.0
2004091006,0.0
2004091012,0.0
2004091018,0.0
